This demonstration page uses our WeatherBlox Daily Observations layout. Learn more.

Left ArrowRight Arrow

39.95238, -75.16362

Hourly Observations for April 23, 2015

Temp ( °F °C ) Dew Point ( °F °C ) Humidity (%) Winds ( mph kmh ) Pressure ( in mb ) Visibility ( mi km ) Precip ( " mm )
12:54 am 00:54 Mostly Cloudy 48 8.9 29 -1.7 48 48 W 12 19 29.78 1008 10 16 0.00 0.00
1:54 am 01:54 Mostly Clear 47 8.3 29 -1.7 50 50 WNW 8 13 29.76 1008 10 16 0.00 0.00
2:54 am 02:54 Mostly Clear 44 6.7 31 -0.6 60 60 W 9 15 29.77 1008 10 16 0.00 0.00
3:54 am 03:54 Partly Cloudy 45 7.2 28 -2.2 52 52 W 8 13 29.78 1009 10 16 0.00 0.00
4:54 am 04:54 Mostly Cloudy 44 6.7 28 -2.2 53 53 W 12 19 29.79 1009 10 16 0.00 0.00
5:54 am 05:54 Mostly Clear 44 6.7 25 -3.9 47 47 WNW 13 20 29.81 1010 10 16 0.00 0.00
6:54 am 06:54 Partly Cloudy 43 6.1 24 -4.4 47 47 W 8 13 29.83 1010 10 16 0.00 0.00
7:54 am 07:54 Mostly Sunny 44 6.7 25 -3.9 47 47 WNW 12 19 29.84 1010 10 16 0.00 0.00
8:54 am 08:54 Mostly Sunny 47 8.3 24 -4.4 41 41 W 13 20 29.83 1010 10 16 0.00 0.00
9:54 am 09:54 Mostly Cloudy 48 8.9 23 -5 37 37 W 18 30 29.82 1010 10 16 0.00 0.00
10:54 am 10:54 Mostly Cloudy 50 10 24 -4.4 36 36 W 18 30 29.82 1010 10 16 0.00 0.00
11:54 am 11:54 Mostly Cloudy 49 9.4 24 -4.4 38 38 W 16 26 29.82 1010 10 16 0.00 0.00
12:54 pm 12:54 Mostly Cloudy 51 10.6 23 -5 33 33 NW 18 30 29.80 1009 10 16 0.00 0.00
1:54 pm 13:54 Cloudy 52 11.1 23 -5 32 32 WNW 22 35 29.80 1009 10 16 0.00 0.00
2:54 pm 14:54 Cloudy 51 10.6 24 -4.4 35 35 W 18 30 29.79 1009 10 16 0.00 0.00
3:54 pm 15:54 Cloudy 51 10.6 24 -4.4 35 35 W 22 35 29.80 1009 10 16 0.00 0.00
4:54 pm 16:54 Cloudy with Light Rain 49 9.4 29 -1.7 46 46 W 18 30 29.82 1010 10 16 0.00 0.03
5:54 pm 17:54 Cloudy 47 8.3 32 0 56 56 NW 14 22 29.85 1011 10 16 0.00 0.03
6:54 pm 18:54 Cloudy 47 8.3 29 -1.7 50 50 WNW 16 26 29.85 1011 10 16 0.00 0.00
7:54 pm 19:54 Cloudy 47 8.3 26 -3.3 44 44 WNW 17 28 29.87 1011 10 16 0.00 0.00
8:54 pm 20:54 Mostly Cloudy 47 8.3 23 -5 39 39 WNW 20 31 29.89 1012 10 16 0.00 0.00
9:54 pm 21:54 Mostly Cloudy 45 7.2 22 -5.6 40 40 NW 22 35 29.90 1013 10 16 0.00 0.00
10:54 pm 22:54 Mostly Cloudy 44 6.7 23 -5 43 43 NW 14 22 29.90 1013 10 16 0.00 0.00
11:54 pm 23:54 Mostly Cloudy 43 6.1 23 -5 45 45 NW 12 19 29.91 1013 10 16 0.00 0.00

Powered by AerisWeather